カタログに戻る

FREGAT DEB

運用中UNKNOWN
NORAD 46095·DEBRIS·🇷🇺 Russia

打ち上げ Jul 18, 2011 から Baikonur Cosmodrome

Loading…

次のパス (今後24時間)

TLE

古いSource: Space-Track

元期: May 31, 2026, 23:23 UTC

1 46095U 11037JE  26151.97463323  .00001922  00000-0  45442-1 0  9992
2 46095  50.9219   1.7850 1470379 267.3275  75.8907 10.03468759209512

AllMySatでFREGAT DEBをリアルタイム追跡

Download on the App Store